OK2AF-5 Weather Reports


time (UTC)temp
C
wind
direction
speed
KPH
gust
KPH
rain 1hr
cm
rain 24hr
cm
rain mn
cm
humidity
%
barometer
mb
20260507203221 -17 0 0.0 3.2 0.00 0.00 0.00 1014.2
20260507202326 -17 0 1.6 3.2 0.00 0.00 0.00 1014.0
20260507201432 -17 0 1.6 3.2 0.00 0.00 0.00 1013.9
20260507200537 -17 0 1.6 4.8 0.00 0.00 0.00 1013.6
20260507195631 -17 0 3.2 4.8 0.00 0.00 0.00 1013.5
20260507194738 -17 0 1.6 9.7 0.00 0.00 0.00 1013.3
20260507193842 -17 0 4.8 9.7 0.00 0.00 0.00 1013.2
20260507192946 -17 0 4.8 9.7 0.00 0.00 0.00 1013.1
20260507192045 -17 0 4.8 9.7 0.00 0.00 0.00 1013.0
20260507191145 -17 0 3.2 12.9 0.00 0.00 0.00 1012.8
20260507190243 -17 0 1.6 11.3 0.00 0.00 0.00 1012.7
20260507185345 -17 45 4.8 8.0 0.00 0.00 0.00 1012.5
20260507184458 -17 0 1.6 4.8 0.00 0.00 0.00 1012.3
20260507183555 -17 0 0.0 4.8 0.00 0.00 0.00 1012.0
20260507182702 -17 0 3.2 4.8 0.00 0.00 0.00 1011.9
20260507181806 -17 0 0.0 6.4 0.00 0.00 0.00 1011.6
20260507180906 -17 0 3.2 9.7 0.00 0.00 0.00 1011.2
20260507180011 -17 45 4.8 8.0 0.00 0.00 0.00 1011.1
20260507175118 -17 0 4.8 14.5 0.00 0.00 0.00 1011.0
20260507174221 -17 0 6.4 9.7 0.00 0.00 0.00 1010.9
20260507173328 -17 0 4.8 8.0 0.00 0.00 0.00 1010.7
20260507172431 -17 0 6.4 11.3 0.00 0.00 0.00 1010.6
20260507171536 -17 0 8.0 11.3 0.00 0.00 0.00 1010.5
20260507170643 -17 270 3.2 12.9 0.00 0.00 0.00 1010.4
20260507165749 -17 0 8.0 12.9 0.00 0.00 0.00 1010.4
20260507164854 -17 0 4.8 20.9 0.00 0.00 0.00 1010.3
20260507164000 -17 45 12.9 17.7 0.00 0.00 0.00 1010.2
20260507163106 -17 0 4.8 19.3 0.00 0.00 0.00 1010.0
20260507162209 -17 0 8.0 22.5 0.00 0.00 0.00 1010.1
20260507161311 -17 0 8.0 17.7 0.00 0.00 0.00 1010.0
20260507160419 -17 0 4.8 17.7 0.00 0.00 0.00 1010.0
20260507155525 -17 0 4.8 14.5 0.00 0.00 0.00 1009.8
20260507154629 -17 0 8.0 19.3 0.00 0.00 0.00 1009.9
20260507153736 -17 0 8.0 16.1 0.00 0.00 0.00 1009.8
20260507152841 -17 0 8.0 24.1 0.00 0.00 0.00 1009.7
20260507151947 -17 0 9.7 22.5 0.00 0.00 0.00 1009.6
20260507151053 -17 225 3.2 20.9 0.00 0.00 0.00 1009.4
20260507150157 -17 0 6.4 17.7 0.00 0.00 0.00 1009.2
20260507145307 -17 270 8.0 12.9 0.00 0.00 0.00 1009.2
20260507144411 -17 45 8.0 12.9 0.00 0.00 0.00 1009.5
20260507143516 -17 45 4.8 19.3 0.00 0.00 0.00 1009.8
20260507142620 -17 45 9.7 16.1 0.00 0.00 0.00 1009.8
20260507141724 -17 0 6.4 14.5 0.00 0.00 0.00 1009.8
20260507140832 -17 0 4.8 19.3 0.00 0.00 0.00 1009.7
20260507135936 -17 0 16.1 20.9 0.00 0.00 0.00 1009.8
20260507135041 -17 0 11.3 22.5 0.00 0.00 0.00 1009.5
20260507134146 -17 0 12.9 20.9 0.00 0.00 0.00 1009.3
20260507133250 -17 248 9.7 24.1 0.00 0.00 0.00 1009.4
20260507132349 -17 315 8.0 20.9 0.00 0.00 0.00 1009.5
20260507131446 -17 0 3.2 20.9 0.00 0.00 0.00 1009.5
20260507130549 -17 0 4.8 19.3 0.00 0.00 0.00 1009.2
20260507125655 -17 0 6.4 16.1 0.00 0.00 0.00 1009.0
20260507124800 -17 0 9.7 20.9 0.00 0.00 0.00 1009.2
20260507123907 -17 0 16.1 19.3 0.00 0.00 0.00 1009.6
20260507123010 -17 0 6.4 19.3 0.00 0.00 0.00 1009.5
20260507122112 -17 0 1.6 22.5 0.00 0.00 0.00 1009.3
20260507121217 -17 90 9.7 16.1 0.00 0.00 0.00 1009.3
20260507120321 -17 270 6.4 22.5 0.00 0.00 0.00 1009.6
20260507115423 -17 0 4.8 24.1 0.00 0.00 0.00 1009.6
20260507114527 -17 270 24.1 27.4 0.00 0.00 0.00 1009.5
20260507113631 -17 270 4.8 19.3 0.00 0.00 0.00 1009.5
20260507112738 -17 0 9.7 17.7 0.00 0.00 0.00 1009.5
20260507111841 -17 0 8.0 24.1 0.00 0.00 0.00 1009.4
20260507110945 -17 225 9.7 29.0 0.00 0.00 0.00 1009.6
20260507110051 -17 270 14.5 25.7 0.00 0.00 0.00 1009.5
20260507105156 -17 90 8.0 22.5 0.00 0.00 0.00 1009.3
20260507104300 -17 0 4.8 19.3 0.00 0.00 0.00 1009.3
20260507103407 -17 0 11.3 25.7 0.00 0.00 0.00 1009.3
20260507102512 -17 0 4.8 16.1 0.00 0.00 0.00 1009.4
20260507101620 -17 0 8.0 20.9 0.00 0.00 0.00 1009.5
20260507100723 -17 0 8.0 16.1 0.00 0.00 0.00 1009.4
20260507095827 -17 270 4.8 20.9 0.00 0.00 0.00 1009.5
20260507094933 -17 0 4.8 12.9 0.00 0.00 0.00 1009.4
20260507094033 -17 225 3.2 19.3 0.00 0.00 0.00 1009.7
20260507093141 -17 225 8.0 30.6 0.00 0.00 0.00 1009.6
20260507092245 -17 270 6.4 20.9 0.00 0.00 0.00 1009.5
20260507091350 -17 0 4.8 24.1 0.00 0.00 0.00 1009.2
20260507090455 -17 0 8.0 17.7 0.00 0.00 0.00 1009.2
20260507085603 -17 0 11.3 16.1 0.00 0.00 0.00 1009.4
20260507084708 -17 0 4.8 14.5 0.00 0.00 0.00 1009.3
20260507083812 -17 270 4.8 14.5 0.00 0.00 0.00 1009.5
20260507082919 -17 0 11.3 16.1 0.00 0.00 0.00 1009.5
20260507082022 -17 0 8.0 17.7 0.00 0.00 0.00 1009.4
20260507081122 -17 0 14.5 22.5 0.00 0.00 0.00 1009.4
20260507080231 -17 0 6.4 16.1 0.00 0.00 0.00 1009.4
20260507075335 -17 270 8.0 16.1 0.00 0.00 0.00 1009.4
20260507074438 -17 270 9.7 24.1 0.00 0.00 0.00 1009.4
20260507073543 -17 270 8.0 17.7 0.00 0.00 0.00 1009.5
20260507072645 -17 248 4.8 20.9 0.00 0.00 0.00 1009.5
20260507071750 -17 0 8.0 19.3 0.00 0.00 0.00 1009.4
20260507070855 -17 0 6.4 14.5 0.00 0.00 0.00 1009.2
20260507070000 -17 0 14.5 24.1 0.00 0.00 0.00 1009.3
20260507065106 -17 225 6.4 16.1 0.00 0.00 0.00 1009.3
20260507064212 -17 225 8.0 19.3 0.00 0.00 0.00 1009.2
20260507063317 -17 270 4.8 22.5 0.00 0.00 0.00 1009.1
20260507062421 -17 270 17.7 24.1 0.00 0.00 0.00 1008.9
20260507060632 -17 0 1.6 11.3 0.00 0.00 0.00 1008.8
20260507055736 -17 0 6.4 17.7 0.00 0.00 0.00 1008.9
20260507054838 -17 0 1.6 17.7 0.00 0.00 0.00 1008.8
20260507053943 -17 0 9.7 12.9 0.00 0.00 0.00 1008.7
20260507053049 -17 0 6.4 11.3 0.00 0.00 0.00 1008.5
20260507052155 -17 0 9.7 16.1 0.00 0.00 0.00 1008.6
20260507051300 -17 315 11.3 20.9 0.00 0.00 0.00 1008.5
20260507050403 -17 45 6.4 17.7 0.00 0.00 0.00 1008.3
20260507045511 -17 0 4.8 16.1 0.00 0.00 0.00 1008.3
20260507044615 -17 0 3.2 20.9 0.00 0.00 0.00 1008.2
20260507043721 -17 0 19.3 20.9 0.00 0.00 0.00 1008.0
20260507042827 -17 45 9.7 12.9 0.00 0.00 0.00 1007.9
20260507041932 -17 270 8.0 11.3 0.00 0.00 0.00 1007.9
20260507041038 -17 315 6.4 11.3 0.00 0.00 0.00 1007.8
20260507040143 -17 90 3.2 6.4 0.00 0.00 0.00 1008.0
20260507035250 -17 225 1.6 8.0 0.00 0.00 0.00 1008.0
20260507034356 -17 90 3.2 4.8 0.00 0.00 0.00 1008.0
20260507033457 -17 338 1.6 3.2 0.00 0.00 0.00 1008.0
20260507032554 -17 0 0.0 0.0 0.00 0.00 0.00 1008.0
20260507031701 -17 0 1.6 3.2 0.00 0.00 0.00 1008.2
20260507030807 -17 0 0.0 3.2 0.00 0.00 0.00 1007.9
20260507025909 -17 45 1.6 3.2 0.00 0.00 0.00 1007.7
20260507025015 -17 45 3.2 6.4 0.00 0.00 0.00 1007.5
20260507024119 -17 45 4.8 8.0 0.00 0.00 0.00 1007.5
20260507023225 -17 0 6.4 6.4 0.00 0.00 0.00 1007.6
20260507022329 -17 0 1.6 4.8 0.00 0.00 0.00 1007.5
20260507021417 -17 315 0.0 1.6 0.00 0.00 0.00 1007.3
20260507020509 -17 0 0.0 4.8 0.00 0.00 0.00 1007.1
20260507015611 -17 0 0.0 3.2 0.00 0.03 0.00 1007.0
20260507014711 -17 0 0.0 0.0 0.00 0.03 0.00 1007.1
20260507013816 -17 0 0.0 4.8 0.00 0.03 0.00 1006.9
20260507012028 -17 0 3.2 4.8 0.00 0.03 0.00 1006.7
20260507011133 -17 0 1.6 8.0 0.00 0.03 0.00 1006.8
20260507010238 -17 315 3.2 6.4 0.00 0.03 0.00 1006.8
20260507005345 -17 0 3.2 4.8 0.00 0.03 0.00 1006.6
20260507004451 -17 0 4.8 9.7 0.00 0.03 0.00 1006.6
20260507003556 -17 315 4.8 9.7 0.00 0.03 0.00 1006.4
20260507002701 -17 0 9.7 11.3 0.00 0.03 0.00 1006.3
20260507001804 -17 0 4.8 8.0 0.00 0.03 0.00 1006.0
20260507000905 -17 0 3.2 8.0 0.00 0.03 0.00 1005.9
20260507000011 -17 0 4.8 6.4 0.00 0.03 0.00 1005.8
20260506235118 -17 0 6.4 6.4 0.00 0.03 0.00 1005.7
20260506234224 -17 0 3.2 9.7 0.00 0.03 0.00 1005.6
20260506233330 -17 45 6.4 11.3 0.00 0.03 0.00 1005.5
20260506232435 -17 0 11.3 11.3 0.00 0.03 0.00 1005.5
20260506231542 -17 0 3.2 17.7 0.00 0.03 0.00 1005.6
20260506230645 -17 0 4.8 17.7 0.00 0.03 0.00 1005.6
20260506225747 -17 0 6.4 11.3 0.00 0.03 0.00 1005.5
20260506224852 -17 0 4.8 14.5 0.00 0.03 0.00 1005.3
20260506223957 -17 0 6.4 19.3 0.00 0.03 0.00 1005.3
20260506223102 -17 0 6.4 22.5 0.00 0.03 0.00 1005.3
20260506222209 -17 0 12.9 27.4 0.00 0.03 0.00 1005.3
20260506221315 -17 0 12.9 24.1 0.00 0.03 0.00 1004.8
20260506220422 -17 45 11.3 11.3 0.00 0.03 0.00 1004.4
20260506215526 -17 270 0.0 3.2 0.00 0.03 0.03 1004.4
20260506214630 -17 270 1.6 1.6 0.00 0.03 0.03 1004.2
20260506213735 -17 270 0.0 1.6 0.00 0.03 0.03 1004.1
20260506212842 -17 270 0.0 3.2 0.00 0.03 0.03 1004.0
20260506211948 -17 270 3.2 4.8 0.00 0.03 0.03 1004.0
20260506211052 -17 315 3.2 3.2 0.00 0.03 0.03 1004.1
20260506210159 -17 315 0.0 0.0 0.00 0.03 0.03 1004.0
20260506205300 -17 315 1.6 1.6 0.00 0.03 0.03 1004.0
20260506204404 -17 315 0.0 1.6 0.00 0.03 0.03 1004.0